Wetbulb
41.71 37.67 33.93 36.19 38.15 38.75 36.24 33.89 32.96 36.65 41.06 38.26 36.72 36.89 40.08 41.73 42.13 41.00 39.29 39.19 40.47 42.00 45.50 51.63 53.80 54.34 51.85 52.75 53.61 53.93 54.30 54.26 54.04 51.34 50.30 49.85 50.65 49.80 49.93 50.59 51.48 50.91 50.17 49.85
37.94 35.01 40.72 41.09 41.23 39.59 37.56 33.68 33.42 37.71 40.52 36.89 36.65 37.26 39.80 41.53 41.48 40.62 40.72 41.46 41.17 41.83 44.29 43.19 49.04 51.21 51.03 51.58 53.44 53.61 54.26 54.30 54.78 55.06 53.81 51.11 50.34 50.08 51.07 51.37 51.52 51.86 51.15 50.50
35.02 39.28 43.41 41.86 38.58 37.20 34.72 33.02 32.96 34.11 38.16 37.31 35.41 35.92 37.17 40.80 41.49 42.96 41.84 41.14 42.69 43.23 43.94 43.98 43.77 47.13 49.45 50.04 52.57 53.40 54.11 54.22 55.10 54.68 51.46 49.85 50.37 49.99 49.86 50.22 50.88 51.44 51.56 51.09
37.41 41.64 41.14 38.70 38.23 38.16 33.00 39.33 39.38 37.80 33.51 28.96 35.20 28.18 33.92 37.07 39.46 40.39 39.17 40.26 41.42 42.51 44.37 45.67 45.39 45.84 46.65 48.03 51.49 53.56 54.04 53.83 54.76 53.09 52.51 51.48 50.94 51.27 51.14 51.35 51.53 51.75 51.62 51.12
37.28 38.11 38.15 38.01 39.16 39.91 37.45 40.60 37.99 37.38 32.39 30.85 31.71 29.71 31.73 35.61 37.45 38.59 39.40 41.03 43.08 44.45 45.42 45.33 45.05 44.95 46.49 48.94 47.76 51.63 52.50 53.04 53.79 53.47 53.52 52.27 50.14 50.42 49.79 50.03 50.45 51.17 51.33 51.45
39.22 42.48 40.61 39.82 41.38 40.91 41.50 37.59 36.80 34.14 32.21 27.24 31.25 30.74 31.02 33.77 37.08 37.06 38.75 40.83 42.13 42.98 45.46 47.17 48.18 48.14 46.69 46.87 48.28 48.33 50.43 51.98 51.63 53.19 52.09 52.10 51.85 49.36 48.99 48.96 49.50 50.25 51.61 51.66
37.39 37.87 40.12 41.46 37.25 39.81 38.67 32.56 28.01 28.10 27.28 28.40 32.93 31.02 32.73 36.56 39.65 40.06 39.84 40.97 42.99 44.40 45.64 46.28 46.21 47.03 48.12 46.81 47.40 48.62 48.99 49.62 50.41 51.48 51.26 51.80 51.70 50.83 50.68 50.62 50.83 49.63 50.75 50.00
30.89 31.85 36.90 40.08 37.09 34.69 34.72 33.56 28.42 24.62 24.76 28.25 33.62 28.96 34.11 39.63 41.30 41.80 42.36 42.77 44.27 44.49 45.16 45.60 46.10 46.70 47.36 47.62 47.57 48.54 49.44 49.02 49.39 49.57 50.61 51.65 51.30 51.79 51.98 51.24 51.84 52.00 52.02 52.48
30.88 32.65 38.72 39.78 39.22 37.94 34.40 31.18 34.31 30.42 28.15 26.58 29.76 33.19 38.24 39.55 39.95 41.56 42.15 42.66 42.09 42.99 43.75 44.33 45.35 45.89 46.29 46.53 47.40 47.15 47.54 48.54 49.95 49.90 49.52 49.56 50.19 50.44 51.27 50.80 51.03 52.26 51.81 52.69
34.59 30.03 36.52 39.34 38.98 38.05 35.12 37.42 31.33 30.33 24.42 23.16 26.99 28.16 30.09 35.18 37.86 40.26 39.72 39.66 41.04 42.29 42.69 43.24 44.05 44.37 45.14 45.80 46.42 47.30 47.24 46.71 46.78 47.53 49.32 50.66 50.05 51.06 51.89 50.66 50.95 51.21 52.40 51.73
36.52 32.05 33.50 36.22 33.89 33.48 34.75 32.03 32.56 32.00 30.17 25.40 24.11 27.12 36.39 35.64 38.32 37.87 38.17 39.59 40.02 40.53 41.02 41.53 42.22 42.93 43.33 43.89 44.53 45.23 46.10 45.96 46.69 47.33 47.17 46.97 49.84 50.48 50.59 51.84 52.54 52.51 52.67 52.34
37.85 33.62 28.68 33.08 36.86 37.72 35.35 33.52 33.24 29.01 28.16 27.94 26.13 27.02 37.49 36.70 37.80 38.63 38.45 39.73 39.59 40.07 40.12 40.40 40.58 40.75 41.78 42.08 42.81 43.05 44.68 45.06 45.71 46.60 46.45 45.62 46.37 48.75 49.89 50.85 52.32 52.89 52.82 52.96
37.54 32.34 27.44 29.58 33.76 37.18 35.01 36.08 35.94 33.17 31.23 27.95 25.62 27.36 38.33 36.80 36.80 37.39 36.80 37.53 38.32 39.07 39.27 39.06 39.54 39.41 39.56 40.67 41.58 42.29 43.02 43.95 45.18 45.46 46.26 45.74 45.61 45.28 46.15 49.20 51.50 52.11 52.43 53.12
41.56 33.61 30.64 25.53 29.52 33.24 31.99 35.20 36.24 33.60 27.60 27.28 28.61 29.79 33.50 34.88 34.38 35.10 35.54 37.02 37.59 38.03 38.50 38.45 38.25 38.25 38.74 39.90 40.40 41.15 42.46 42.73 43.92 44.52 44.47 45.17 45.46 45.28 45.38 46.20 47.96 50.25 51.86 52.60
33.16 27.93 30.84 31.48 32.16 32.71 33.06 33.02 33.79 32.00 33.12 29.16 31.51 29.91 32.25 33.51 33.60 33.73 34.97 36.83 37.11 37.47 37.78 38.01 38.02 38.02 38.05 39.84 40.19 41.13 42.00 42.04 43.21 43.11 43.31 43.88 45.42 45.24 45.63 46.02 46.52 46.88 48.09 50.35
31.22 26.44 27.70 26.26 31.02 30.13 29.50 31.36 32.01 32.71 33.11 32.52 31.78 27.80 32.75 33.39 32.01 32.59 32.10 34.82 34.97 36.04 37.39 38.23 38.91 39.28 39.23 39.63 40.56 41.54 41.47 42.31 42.74 42.16 42.12 43.64 44.45 44.49 43.99 44.64 45.52 46.07 46.45 46.56
27.64 26.00 23.48 20.37 27.06 27.72 25.69 27.56 28.56 27.97 28.85 28.79 24.00 28.07 31.25 30.24 32.35 31.52 32.48 33.97 34.26 35.70 36.58 36.98 37.69 38.81 39.41 39.71 40.20 40.47 41.17 41.25 41.08 41.45 42.61 43.26 43.68 43.37 43.70 44.06 44.07 44.28 44.63 45.73
26.58 24.80 24.53 20.61 23.17 17.52 26.29 33.32 32.74 29.12 29.45 29.88 29.71 30.53 31.64 31.51 32.99 33.39 33.80 33.88 34.04 35.60 36.33 36.35 36.70 37.61 39.44 40.36 40.34 40.70 41.29 41.25 40.55 41.11 41.61 42.49 42.88 43.40 43.66 42.97 42.98 42.97 43.63 44.20
30.96 26.09 21.76 18.85 18.70 24.16 27.93 30.08 29.13 28.28 27.69 32.50 30.99 32.03 32.20 33.24 30.94 32.05 36.57 36.21 35.67 35.86 36.69 36.84 37.32 38.30 38.85 39.50 40.27 39.80 40.30 40.37 40.79 41.35 41.69 42.44 42.41 42.46 42.97 42.25 42.28 42.37 42.32 43.41
29.81 28.37 24.07 20.29 19.08 18.82 24.08 30.25 34.19 34.21 24.87 32.45 31.97 30.67 30.78 31.20 25.49 28.04 34.31 35.69 36.73 37.36 37.47 37.79 39.01 38.95 38.85 39.72 39.94 38.27 39.09 39.46 40.30 41.40 42.11 42.78 42.67 42.36 41.90 42.10 41.80 41.88 41.79 42.83
24.42 25.73 21.14 20.71 21.39 23.38 28.75 31.15 33.26 23.89 25.39 32.29 32.09 31.03 30.76 28.65 30.60 34.05 36.05 36.04 36.70 37.39 38.24 39.48 38.92 38.15 38.91 39.87 39.18 37.95 39.10 38.77 41.30 42.12 42.46 42.32 42.37 42.04 41.57 41.53 42.05 42.16 41.87 42.10
22.49 20.55 20.61 22.76 22.13 21.49 34.30 32.11 25.50 28.31 30.53 31.35 31.49 31.64 31.99 32.76 33.88 34.65 35.54 35.58 36.32 36.30 37.47 38.07 37.72 37.73 39.00 39.31 38.96 38.31 37.74 40.45 41.26 41.49 41.49 41.63 41.76 42.42 43.25 41.30 41.35 41.58 40.91 40.28
19.84 24.49 19.34 22.16 22.69 30.01 31.62 31.31 33.56 33.09 31.53 31.13 30.63 32.75 33.13 32.56 32.47 33.55 33.49 33.93 34.41 34.73 35.31 36.16 36.01 36.21 37.19 37.93 37.79 36.34 37.31 38.87 40.70 41.11 40.70 40.74 41.42 41.69 42.28 41.25 41.21 41.10 41.32 40.45
24.87 27.41 22.42 23.68 26.15 28.03 31.05 32.03 32.76 33.54 31.98 33.50 33.99 33.16 32.77 30.90 31.91 31.57 31.88 31.57 31.42 32.07 32.10 33.31 33.35 33.03 33.51 35.80 36.26 36.29 37.00 37.93 38.70 37.79 38.38 39.31 39.41 41.34 41.96 42.45 42.35 41.57 41.19 41.04
25.94 25.97 23.65 23.24 26.63 28.81 30.54 32.16 32.53 33.53 33.87 33.06 33.15 32.70 32.02 31.21 30.03 29.75 29.20 29.47 30.04 30.69 31.75 32.21 31.73 32.12 32.63 34.35 34.82 35.67 36.00 36.13 34.93 35.43 36.53 36.92 37.92 38.67 39.59 41.15 41.81 42.08 42.86 42.86
26.55 25.12 22.11 21.15 27.57 28.47 29.44 31.64 33.64 31.97 31.36 31.98 30.63 30.01 30.46 29.81 28.69 28.97 28.23 29.21 29.36 29.76 30.46 30.93 31.75 32.42 33.38 34.30 34.88 36.07 36.90 36.68 36.55 36.09 37.12 37.85 38.12 38.28 38.57 38.76 39.56 44.24 45.50 46.28
MSLP
1013.52 1014.29 1014.52 1014.34 1014.28 1014.05 1014.01 1014.01 1013.80 1012.97 1012.57 1012.57 1012.65 1013.09 1012.78 1012.12 1011.76 1011.96 1011.66 1011.15 1010.70 1010.62 1010.13 1009.90 1009.72 1010.29 1011.17 1011.87 1012.47 1012.91 1013.67 1014.33 1015.22 1016.14 1016.99 1017.49 1017.78 1018.00 1018.24 1018.32 1018.36 1018.65 1018.91 1019.11
1014.17 1014.14 1013.53 1013.64 1013.61 1013.69 1013.75 1013.79 1013.68 1013.16 1012.81 1012.96 1013.36 1013.42 1013.24 1012.82 1012.97 1012.99 1012.51 1011.86 1011.12 1010.93 1010.18 1009.73 1009.72 1010.05 1010.56 1011.07 1011.78 1012.59 1013.04 1013.82 1014.45 1015.20 1015.91 1016.56 1017.12 1017.52 1017.73 1017.92 1018.11 1018.23 1018.47 1018.75
1014.12 1013.36 1013.00 1013.16 1013.21 1013.34 1013.42 1013.60 1013.70 1013.88 1013.62 1013.48 1013.80 1014.20 1014.08 1013.57 1013.32 1013.11 1012.91 1012.65 1011.92 1011.65 1011.24 1010.40 1010.10 1010.15 1010.44 1011.00 1011.35 1011.90 1012.48 1013.16 1013.88 1014.61 1015.57 1016.45 1016.99 1017.37 1017.72 1017.81 1017.90 1017.96 1018.13 1018.37
1013.84 1013.09 1012.97 1012.95 1012.99 1013.16 1013.35 1013.34 1013.67 1014.05 1014.41 1014.69 1014.40 1015.14 1014.83 1014.70 1014.37 1014.21 1014.10 1013.65 1013.26 1012.77 1011.96 1011.40 1011.05 1010.67 1010.83 1010.79 1011.30 1011.64 1012.20 1012.90 1013.68 1014.34 1015.16 1015.75 1016.27 1016.93 1017.08 1017.19 1017.41 1017.57 1017.70 1017.94
1013.79 1013.29 1013.09 1013.02 1012.91 1012.99 1013.31 1013.47 1013.94 1014.26 1014.98 1015.45 1015.21 1015.41 1015.09 1015.02 1015.09 1015.26 1015.16 1014.79 1014.26 1013.67 1013.14 1012.51 1012.02 1011.45 1011.02 1010.97 1011.46 1011.69 1012.14 1012.79 1013.28 1013.93 1014.47 1015.14 1015.79 1016.10 1016.33 1016.71 1017.04 1017.21 1017.33 1017.40
1014.14 1013.37 1013.10 1012.92 1012.88 1013.08 1013.35 1013.83 1014.45 1015.06 1015.59 1016.01 1015.10 1015.24 1015.50 1015.24 1015.36 1015.72 1015.76 1015.59 1015.24 1014.70 1014.04 1013.39 1012.80 1012.17 1011.76 1011.40 1011.53 1012.10 1012.43 1012.56 1012.97 1013.57 1014.12 1014.61 1015.12 1015.59 1016.18 1016.54 1016.79 1016.85 1016.95 1017.09
1014.64 1013.89 1013.35 1013.12 1013.25 1013.33 1013.85 1014.84 1015.44 1015.97 1016.21 1015.74 1015.10 1015.38 1015.41 1015.30 1015.64 1015.98 1016.30 1016.19 1015.91 1015.57 1015.12 1014.59 1014.03 1013.43 1012.96 1012.61 1012.38 1012.53 1012.81 1013.03 1013.00 1013.31 1013.82 1014.08 1014.37 1014.81 1015.23 1015.57 1015.97 1016.38 1016.52 1016.64
1016.26 1014.78 1013.95 1013.65 1013.71 1013.95 1014.25 1015.02 1015.89 1016.24 1016.48 1016.04 1015.28 1015.65 1015.88 1015.99 1016.21 1016.56 1016.79 1016.82 1016.44 1016.20 1016.01 1015.64 1015.25 1014.79 1014.37 1013.91 1013.49 1013.26 1013.37 1013.60 1013.73 1013.71 1013.54 1013.65 1013.92 1014.29 1014.54 1014.85 1015.08 1015.26 1015.49 1015.56
1017.27 1015.84 1014.44 1013.97 1013.85 1014.21 1014.62 1015.07 1015.46 1016.09 1016.57 1016.58 1016.34 1016.40 1016.86 1017.08 1017.13 1017.29 1017.63 1017.57 1017.53 1017.29 1016.93 1016.63 1016.20 1015.76 1015.40 1015.02 1014.65 1014.34 1014.06 1013.86 1013.90 1014.03 1014.08 1013.83 1013.76 1013.98 1013.99 1014.04 1014.26 1014.46 1014.58 1014.72
1018.53 1017.35 1015.45 1014.59 1014.32 1014.42 1014.60 1015.13 1015.76 1016.56 1017.13 1017.28 1017.18 1017.33 1018.26 1018.26 1018.39 1018.52 1018.68 1018.74 1018.51 1018.23 1017.94 1017.61 1017.16 1016.74 1016.27 1015.86 1015.52 1014.97 1014.70 1014.56 1014.32 1013.94 1013.76 1013.55 1013.69 1013.60 1013.45 1013.57 1013.70 1013.76 1013.78 1014.02
1019.15 1018.72 1016.92 1015.78 1015.30 1015.08 1015.18 1015.31 1015.97 1016.77 1017.35 1017.82 1018.29 1019.04 1018.98 1019.25 1019.18 1019.40 1019.63 1019.57 1019.27 1019.08 1018.89 1018.62 1018.17 1017.66 1017.14 1016.60 1016.22 1015.96 1015.54 1015.20 1014.78 1014.37 1013.93 1013.51 1013.13 1012.92 1013.07 1013.13 1012.92 1013.00 1013.05 1013.19
1020.07 1019.64 1018.80 1017.31 1016.13 1015.78 1015.72 1015.83 1016.39 1017.29 1018.00 1018.38 1018.86 1020.04 1020.02 1020.15 1020.07 1020.19 1020.34 1020.18 1020.01 1019.67 1019.45 1019.23 1018.88 1018.47 1017.91 1017.45 1016.99 1016.66 1016.26 1015.85 1015.47 1014.94 1014.52 1013.99 1013.34 1013.03 1013.00 1012.77 1012.44 1012.38 1012.31 1012.32
1020.92 1020.67 1020.08 1018.50 1017.52 1016.84 1016.89 1017.04 1017.29 1017.62 1018.16 1018.63 1019.60 1020.85 1020.81 1020.81 1021.04 1021.23 1021.16 1021.03 1020.75 1020.29 1019.94 1019.72 1019.32 1019.06 1018.65 1018.16 1017.60 1017.16 1016.75 1016.32 1015.75 1015.22 1014.79 1014.38 1013.91 1013.48 1013.14 1012.66 1012.22 1011.96 1011.82 1011.77
1021.52 1021.68 1021.48 1020.78 1020.14 1019.85 1019.07 1018.67 1018.58 1018.63 1019.21 1019.49 1019.83 1021.20 1021.76 1022.01 1022.22 1022.07 1021.87 1021.62 1021.29 1020.87 1020.57 1020.24 1019.99 1019.61 1019.13 1018.71 1018.11 1017.49 1017.02 1016.60 1016.06 1015.53 1015.18 1014.83 1014.38 1013.89 1013.31 1012.75 1012.22 1011.78 1011.40 1011.21
1023.25 1023.20 1022.61 1021.95 1021.28 1020.75 1020.33 1019.95 1019.70 1019.90 1019.82 1020.23 1020.82 1021.85 1022.77 1022.90 1022.92 1022.83 1022.59 1022.12 1021.73 1021.46 1021.15 1020.88 1020.51 1019.92 1019.37 1018.86 1018.30 1017.82 1017.38 1016.84 1016.29 1015.86 1015.38 1014.96 1014.42 1013.88 1013.30 1012.76 1012.30 1011.86 1011.44 1011.03
1024.77 1024.22 1023.95 1023.03 1022.16 1021.57 1021.14 1021.14 1020.72 1020.55 1020.43 1020.81 1021.59 1023.08 1023.41 1023.59 1023.25 1023.09 1022.80 1022.37 1022.12 1021.89 1021.59 1021.17 1020.57 1020.06 1019.54 1018.96 1018.42 1017.93 1017.48 1017.01 1016.50 1016.06 1015.56 1014.91 1014.39 1013.88 1013.44 1012.89 1012.36 1011.86 1011.24 1010.76
1026.04 1025.51 1025.15 1024.28 1023.31 1022.33 1022.44 1022.44 1022.13 1022.34 1022.14 1022.15 1022.81 1023.87 1023.81 1023.68 1023.38 1022.97 1022.80 1022.69 1022.45 1022.09 1021.80 1021.33 1020.79 1020.18 1019.58 1019.00 1018.56 1017.94 1017.39 1016.94 1016.53 1016.13 1015.59 1015.02 1014.52 1014.05 1013.57 1012.97 1012.49 1012.01 1011.38 1010.83
1026.15 1026.24 1025.98 1025.38 1024.31 1023.84 1024.01 1023.46 1023.24 1023.37 1023.61 1023.56 1023.75 1023.70 1023.67 1023.64 1023.36 1022.95 1022.86 1022.80 1022.47 1022.05 1021.63 1021.18 1020.71 1020.14 1019.53 1018.91 1018.40 1017.89 1017.37 1016.84 1016.36 1015.92 1015.38 1014.89 1014.42 1014.01 1013.46 1012.99 1012.57 1012.01 1011.44 1010.94
1025.81 1026.41 1026.64 1026.14 1025.48 1024.70 1024.07 1024.02 1024.03 1023.79 1024.26 1023.92 1023.86 1023.80 1023.70 1023.49 1023.37 1023.09 1022.69 1022.45 1022.16 1021.74 1021.21 1020.75 1020.36 1019.88 1019.27 1018.73 1018.14 1017.71 1017.21 1016.72 1016.20 1015.59 1015.06 1014.58 1014.19 1013.71 1013.30 1012.86 1012.37 1011.83 1011.30 1010.68
1026.08 1026.47 1026.85 1026.71 1026.22 1025.20 1024.78 1024.10 1023.41 1023.26 1023.87 1023.80 1023.82 1023.91 1023.83 1023.64 1023.53 1023.19 1022.62 1022.25 1021.77 1021.41 1021.05 1020.54 1020.00 1019.54 1019.12 1018.54 1017.98 1017.59 1017.16 1016.63 1015.97 1015.30 1014.77 1014.25 1013.77 1013.36 1012.96 1012.58 1012.08 1011.42 1011.03 1010.44
1026.92 1027.01 1027.05 1026.69 1026.42 1025.44 1024.88 1024.13 1023.06 1023.59 1024.38 1023.86 1023.81 1023.78 1023.83 1024.02 1023.77 1023.06 1022.56 1022.27 1021.86 1021.35 1020.75 1020.21 1019.83 1019.45 1018.91 1018.30 1017.76 1017.42 1016.83 1016.31 1015.49 1014.87 1014.39 1013.97 1013.41 1012.96 1012.50 1011.96 1011.52 1011.07 1010.56 1010.02
1027.81 1027.63 1027.42 1027.04 1026.38 1025.48 1024.71 1024.16 1024.55 1024.29 1023.95 1023.88 1023.74 1023.70 1023.79 1023.80 1023.56 1023.34 1022.99 1022.60 1022.14 1021.75 1021.20 1020.75 1020.22 1019.72 1019.13 1018.64 1018.07 1017.46 1017.00 1016.36 1015.63 1014.94 1014.27 1013.68 1013.06 1012.51 1011.90 1011.52 1011.06 1010.58 1010.16 1009.62
1028.35 1027.70 1027.52 1027.29 1026.05 1024.80 1024.63 1024.54 1024.13 1023.90 1023.85 1023.81 1023.99 1024.06 1024.20 1024.25 1024.12 1023.82 1023.36 1022.88 1022.38 1021.98 1021.47 1021.05 1020.47 1019.78 1019.24 1018.69 1018.30 1017.83 1017.07 1016.46 1015.81 1015.08 1014.30 1013.59 1012.82 1012.21 1011.59 1011.12 1010.56 1010.11 1009.65 1009.26
1028.18 1027.60 1027.44 1027.11 1025.84 1025.09 1024.45 1024.19 1024.01 1023.88 1023.95 1024.18 1024.40 1024.51 1024.54 1024.51 1024.33 1024.15 1023.84 1023.43 1022.92 1022.39 1021.81 1021.26 1020.65 1020.00 1019.33 1018.77 1018.26 1017.64 1016.99 1016.41 1015.68 1015.06 1014.45 1013.73 1013.00 1012.18 1011.36 1010.59 1010.10 1009.56 1009.08 1008.57
1028.02 1027.50 1027.01 1026.65 1025.72 1025.06 1024.37 1024.27 1024.11 1024.32 1024.52 1024.81 1024.91 1024.97 1024.96 1024.95 1024.84 1024.63 1024.30 1023.94 1023.52 1022.92 1022.18 1021.54 1020.85 1020.19 1019.56 1018.89 1018.15 1017.52 1016.80 1016.16 1015.53 1014.84 1014.16 1013.42 1012.62 1011.75 1011.08 1010.49 1009.86 1009.09 1008.42 1008.03
1027.26 1026.75 1026.68 1025.68 1025.25 1025.15 1024.59 1024.35 1024.36 1024.52 1024.86 1025.08 1025.14 1025.22 1025.34 1025.33 1025.18 1024.96 1024.69 1024.25 1023.65 1022.96 1022.45 1021.81 1021.11 1020.35 1019.60 1018.98 1018.37 1017.64 1017.05 1016.53 1015.73 1014.87 1014.09 1013.34 1012.53 1011.77 1010.88 1010.00 1009.01 1008.37 1007.77 1007.27
Wind_Speed
3 5 3 6 5 5 3 3 3 5 2 3 3 5 9 8 10 13 11 8 9 9 9 12 15 14 10 12 14 16 15 12 10 4 5 3 5 3 3 4 7 7 6 7
5 5 9 6 4 4 4 2 5 6 3 2 5 5 6 9 5 6 8 11 10 5 9 5 8 10 14 16 16 15 16 13 12 9 7 4 4 3 3 4 6 7 7 7
5 7 2 4 2 2 3 3 3 3 6 3 0 6 8 5 6 10 10 6 9 9 10 10 1 6 8 13 17 16 16 15 14 11 5 3 3 3 1 3 4 5 7 7
5 4 3 1 3 3 3 2 1 1 5 2 3 3 4 6 8 9 11 11 11 11 11 12 11 4 5 8 8 13 14 14 11 10 9 10 7 9 5 5 4 5 7 8
7 1 1 2 4 1 6 1 2 3 2 3 2 6 6 3 7 7 10 11 12 13 13 15 14 11 7 5 6 7 9 11 11 12 12 10 6 5 4 4 6 7 6 8
7 4 2 5 2 2 2 3 6 5 3 2 5 5 4 2 4 3 5 9 10 11 14 17 16 16 14 9 4 6 7 10 9 13 10 13 13 8 5 5 5 5 6 6
6 1 2 1 3 3 6 6 3 3 3 5 2 4 6 2 4 5 6 8 10 11 14 15 17 17 19 18 9 1 5 6 7 11 11 12 13 12 12 10 8 6 6 4
3 6 2 2 1 2 1 5 5 3 2 3 2 5 2 4 7 7 6 6 12 14 12 14 14 14 16 17 17 12 5 3 4 5 9 10 9 8 9 8 8 8 8 8
3 5 3 1 1 3 1 0 3 2 2 3 1 5 8 6 8 9 10 12 11 12 12 12 13 13 15 14 15 13 14 10 5 6 6 7 7 7 9 9 8 8 7 6
2 5 2 3 2 0 3 2 1 3 2 2 2 4 1 0 5 7 9 8 8 10 12 12 12 13 12 13 12 14 13 10 7 8 4 6 7 8 9 6 10 9 9 8
1 2 7 3 0 2 3 2 1 3 4 4 4 2 5 2 5 8 6 6 7 9 9 9 10 10 10 12 12 12 13 13 13 12 11 8 7 7 6 9 11 11 10 10
1 2 4 7 5 4 1 1 3 5 3 1 4 2 6 5 7 6 6 6 6 6 7 7 7 8 10 11 11 11 12 12 11 10 8 8 8 6 6 8 11 9 11 10
4 2 4 7 6 6 5 3 3 2 2 3 5 4 6 8 10 9 7 7 7 7 8 7 9 9 8 9 9 10 10 11 11 11 11 8 8 8 7 8 8 7 9 11
1 1 4 4 1 4 6 8 5 2 2 1 2 7 6 7 8 9 9 6 6 7 7 7 7 7 7 7 7 8 10 7 9 11 11 10 9 8 7 7 7 7 8 10
5 3 4 4 6 4 7 10 9 4 5 3 4 7 4 4 5 4 5 6 7 7 7 8 8 8 7 10 7 8 9 8 9 9 10 10 9 8 9 11 9 7 6 8
7 4 5 4 6 6 3 7 8 4 5 3 14 8 5 6 4 5 5 6 7 6 7 9 11 11 12 11 10 12 10 10 9 9 8 9 8 8 8 10 11 10 10 8
3 1 3 5 6 8 3 9 8 10 11 4 7 3 2 2 5 4 2 5 5 4 5 8 9 10 12 12 8 12 11 8 7 8 10 10 8 7 9 9 10 11 12 10
3 1 1 4 5 3 5 8 10 13 7 7 3 4 5 4 5 6 1 6 7 6 7 7 7 8 11 11 11 9 10 11 7 8 9 9 7 10 10 8 10 10 10 9
10 5 3 1 2 2 1 6 3 3 3 3 6 6 4 6 3 3 5 4 7 8 8 6 7 9 9 12 11 9 11 10 10 12 11 9 6 11 11 10 11 9 9 11
5 3 2 1 1 3 2 6 9 2 6 3 2 3 4 4 7 5 7 7 10 8 7 9 11 9 8 11 10 8 10 10 12 12 11 11 10 11 11 11 11 7 7 10
3 2 5 6 4 2 3 5 7 6 1 4 1 2 3 2 5 9 10 8 8 9 13 12 10 9 10 12 10 9 11 10 13 12 11 10 11 12 9 8 9 9 10 9
1 2 1 1 3 4 4 2 2 6 4 3 3 3 5 7 7 7 8 10 10 11 12 11 11 10 11 11 12 12 10 13 14 14 13 13 13 10 10 10 9 11 10 10
3 3 4 7 6 2 4 5 7 4 5 3 1 4 4 5 5 8 9 11 11 14 13 14 13 13 12 8 7 13 14 13 13 14 13 12 13 12 12 11 11 9 9 7
5 1 2 4 5 6 9 7 4 4 2 3 6 5 5 6 8 9 9 11 12 13 13 13 14 15 15 13 14 14 13 14 15 15 15 14 13 15 12 10 9 9 8 9
7 2 3 6 7 7 4 5 5 3 6 5 4 3 5 6 8 10 12 11 11 12 12 14 14 14 15 15 15 15 15 14 15 15 13 14 13 13 12 12 10 11 11 9
5 7 5 7 6 5 7 3 4 5 5 3 3 4 4 6 8 10 10 11 12 13 13 12 14 14 15 14 15 16 14 14 14 13 11 11 11 11 11 11 12 17 18 18
Wind_Direction
352 46 256 257 200 217 226 223 259 259 249 353 294 324 318 337 31 4 340 301 267 228 264 242 210 197 183 185 183 187 180 181 166 160 163 175 200 193 210 199 201 201 207 205
18 245 249 229 226 230 243 302 295 291 322 87 17 27 308 16 357 335 332 12 18 36 355 290 206 176 182 183 186 183 189 179 183 184 184 159 158 187 183 195 209 205 203 205
173 240 169 199 282 297 270 218 252 236 326 12 117 9 354 337 4 10 10 343 21 23 10 360 296 203 173 180 184 185 187 184 185 181 126 85 76 46 176 232 220 218 206 207
231 282 207 247 266 145 290 184 114 346 51 244 39 253 330 333 7 17 4 12 11 8 0 12 13 32 181 207 183 183 183 182 183 166 170 186 186 203 212 206 205 220 208 209
262 238 227 308 244 170 234 288 245 197 111 28 317 94 267 5 31 1 1 18 25 24 22 12 3 358 349 165 193 192 173 175 179 181 185 186 191 197 182 181 201 217 221 212
241 288 220 216 280 245 350 19 34 52 96 15 233 122 259 189 147 56 22 25 22 18 24 27 25 24 15 7 156 165 180 183 170 181 186 190 199 190 181 201 207 215 217 217
330 281 335 68 343 22 64 48 341 358 13 215 142 68 241 125 99 109 74 36 35 35 36 32 26 21 22 19 12 92 174 214 188 184 189 198 205 202 205 204 207 198 218 217
40 332 357 18 140 256 244 142 158 269 217 271 329 138 124 85 82 62 43 42 45 38 33 32 28 28 28 25 26 24 18 271 235 234 213 207 207 206 214 210 206 214 212 217
32 273 311 199 326 111 360 258 193 122 7 60 231 72 49 21 49 48 47 44 37 33 29 30 28 27 28 23 23 23 25 17 358 275 275 237 223 215 210 213 209 216 215 214
331 306 279 292 11 77 195 227 352 12 235 231 359 76 97 97 74 52 43 41 38 37 31 25 24 21 19 17 13 17 18 17 358 353 300 241 238 237 224 209 217 216 223 217
16 137 288 342 213 232 354 310 72 128 140 179 149 291 359 153 102 92 55 44 48 44 35 28 20 13 17 19 15 10 9 6 3 356 344 323 275 240 225 226 229 226 225 216
2 153 259 243 286 306 246 211 116 122 253 147 133 247 13 29 46 60 48 43 39 46 35 25 14 7 12 13 11 7 4 4 357 346 342 348 351 319 263 244 243 235 225 219
338 323 329 340 355 358 40 20 26 113 73 219 136 203 34 34 36 18 21 16 19 22 21 14 16 10 359 358 1 1 356 354 353 352 350 342 353 1 334 289 268 249 238 240
78 252 205 218 17 354 318 339 355 78 99 265 201 136 26 23 26 4 359 18 21 21 10 359 5 354 346 342 341 346 345 340 344 349 348 344 341 342 341 330 315 287 262 252
57 297 322 306 278 249 266 279 287 259 235 157 142 100 76 16 6 6 2 11 14 19 11 354 343 337 333 341 339 344 339 331 337 339 343 336 325 333 344 345 337 322 297 272
352 297 356 287 337 314 235 7 331 307 311 228 127 89 2 5 327 8 14 23 6 2 357 346 338 339 338 337 336 341 335 328 332 330 322 326 324 332 334 334 331 329 329 318
303 281 23 272 327 312 52 338 65 75 32 55 59 61 205 309 336 339 346 359 340 316 314 315 315 322 328 328 322 325 324 314 317 320 318 321 316 323 329 326 325 327 326 320
233 125 221 269 349 239 145 49 85 76 56 60 64 315 305 293 278 294 77 348 327 306 311 310 300 306 313 313 313 313 318 322 315 317 306 312 305 320 322 320 318 318 318 311
200 139 269 227 252 109 30 11 323 290 126 8 339 342 346 348 352 300 329 302 282 295 301 295 291 296 303 305 298 305 313 315 312 318 311 311 295 318 315 314 313 309 310 315
116 92 162 105 230 250 36 278 305 153 217 320 49 7 328 348 348 276 270 294 303 292 277 289 296 296 299 295 296 303 299 303 306 304 301 304 304 312 304 303 302 294 297 299
352 18 211 243 245 271 256 294 314 185 10 359 33 282 282 271 235 281 301 296 292 296 307 305 298 287 285 292 287 288 292 288 292 297 296 291 296 301 287 291 295 296 296 297
293 316 293 302 249 243 268 53 20 239 319 265 255 269 286 285 295 316 331 336 336 335 332 338 336 335 335 324 319 318 313 323 318 307 300 297 295 293 296 294 293 291 287 289
279 183 213 178 235 248 165 198 264 254 239 277 266 296 332 346 327 316 317 320 327 330 330 330 325 323 323 313 339 319 314 315 313 316 317 311 303 294 293 290 292 291 288 278
282 316 216 13 280 276 308 310 236 280 256 357 15 17 7 337 327 323 323 332 325 325 321 320 320 316 313 313 311 306 312 312 308 308 305 309 313 310 301 296 288 282 282 285
217 345 252 263 284 283 259 245 301 65 79 74 46 12 342 338 338 333 328 327 323 318 321 323 317 317 316 315 313 311 310 308 305 301 305 300 293 288 291 290 297 291 284 269
178 217 182 232 223 218 267 309 34 55 44 39 2 19 34 3 345 338 331 326 324 325 324 320 318 316 317 325 324 322 337 340 329 319 316 313 312 307 296 293 291 283 274 277